| time (UTC) | temp F | wind direction | speed MPH | gust MPH | rain 1hr in | rain 24hr in | rain mn in | humidity % | barometer mb |
| 20260509072815 | 74 | 213 | 0.0 | 2.0 | 0.00 | 0.00 | 0.00 | 31 | 1012.9 |
| 20260509072346 | 74 | 213 | 0.0 | 0.0 | 0.00 | 0.00 | 0.00 | 30 | 1012.9 |
| 20260509071816 | 75 | 213 | 0.0 | 0.0 | 0.00 | 0.00 | 0.00 | 30 | 1012.9 |
| 20260509071347 | 75 | 213 | 0.0 | 0.0 | 0.00 | 0.00 | 0.00 | 29 | 1012.9 |
| 20260509070813 | 75 | 213 | 0.0 | 0.0 | 0.00 | 0.00 | 0.00 | 30 | 1012.9 |
| 20260509070326 | 75 | 213 | 0.0 | 0.0 | 0.00 | 0.00 | 0.00 | 30 | 1012.9 |
| 20260509065833 | 75 | 213 | 0.0 | 0.0 | 0.00 | 0.00 | 0.00 | 30 | 1012.9 |
| 20260509065324 | 76 | 213 | 0.0 | 0.0 | 0.00 | 0.00 | 0.00 | 29 | 1012.8 |
| 20260509064831 | 76 | 213 | 0.0 | 0.0 | 0.00 | 0.00 | 0.00 | 29 | 1012.8 |
| 20260509064321 | 76 | 213 | 0.0 | 0.0 | 0.00 | 0.00 | 0.00 | 29 | 1012.8 |
| 20260509063849 | 77 | 213 | 0.0 | 0.0 | 0.00 | 0.00 | 0.00 | 29 | 1012.8 |
| 20260509063319 | 77 | 213 | 0.0 | 0.0 | 0.00 | 0.00 | 0.00 | 30 | 1012.8 |
| 20260509062830 | 77 | 213 | 0.0 | 0.0 | 0.00 | 0.00 | 0.00 | 30 | 1012.7 |
| 20260509062322 | 78 | 213 | 0.0 | 0.0 | 0.00 | 0.00 | 0.00 | 29 | 1012.7 |
| 20260509061829 | 78 | 213 | 0.0 | 0.0 | 0.00 | 0.00 | 0.00 | 29 | 1012.7 |
| 20260509061320 | 79 | 213 | 0.0 | 0.0 | 0.00 | 0.00 | 0.00 | 29 | 1012.7 |
| 20260509060828 | 79 | 213 | 0.0 | 0.0 | 0.00 | 0.00 | 0.00 | 30 | 1012.7 |
| 20260509060318 | 79 | 213 | 0.0 | 0.0 | 0.00 | 0.00 | 0.00 | 30 | 1012.7 |
| 20260509055826 | 80 | 213 | 0.0 | 0.0 | 0.00 | 0.00 | 0.00 | 28 | 1012.6 |
| 20260509055317 | 80 | 213 | 0.0 | 0.0 | 0.00 | 0.00 | 0.00 | 26 | 1012.6 |
| 20260509054825 | 81 | 213 | 0.0 | 0.0 | 0.00 | 0.00 | 0.00 | 24 | 1012.6 |
| 20260509054321 | 81 | 213 | 0.0 | 0.0 | 0.00 | 0.00 | 0.00 | 23 | 1012.5 |
| 20260509053848 | 82 | 213 | 0.0 | 0.0 | 0.00 | 0.00 | 0.00 | 22 | 1012.6 |
| 20260509053317 | 82 | 213 | 0.0 | 0.0 | 0.00 | 0.00 | 0.00 | 22 | 1012.6 |
| 20260509052825 | 83 | 213 | 0.0 | 0.0 | 0.00 | 0.00 | 0.00 | 21 | 1012.6 |
| 20260509052316 | 83 | 213 | 0.0 | 0.0 | 0.00 | 0.00 | 0.00 | 20 | 1012.6 |
| 20260509051823 | 83 | 213 | 0.0 | 1.0 | 0.00 | 0.00 | 0.00 | 20 | 1012.6 |
| 20260509051314 | 84 | 213 | 0.0 | 2.0 | 0.00 | 0.00 | 0.00 | 19 | 1012.5 |
| 20260509050821 | 84 | 213 | 1.0 | 2.0 | 0.00 | 0.00 | 0.00 | 17 | 1012.5 |
| 20260509050333 | 84 | 213 | 0.0 | 3.0 | 0.00 | 0.00 | 0.00 | 18 | 1012.5 |
| 20260509045824 | 85 | 213 | 1.0 | 3.0 | 0.00 | 0.00 | 0.00 | 17 | 1012.5 |
| 20260509045316 | 85 | 213 | 0.0 | 4.0 | 0.00 | 0.00 | 0.00 | 17 | 1012.5 |
| 20260509044822 | 85 | 213 | 0.0 | 4.0 | 0.00 | 0.00 | 0.00 | 17 | 1012.5 |
| 20260509044313 | 85 | 213 | 0.0 | 3.0 | 0.00 | 0.00 | 0.00 | 16 | 1012.4 |
| 20260509043820 | 85 | 213 | 1.0 | 3.0 | 0.00 | 0.00 | 0.00 | 17 | 1012.4 |
| 20260509043330 | 86 | 213 | 1.0 | 3.0 | 0.00 | 0.00 | 0.00 | 17 | 1012.4 |
| 20260509042816 | 86 | 213 | 0.0 | 4.0 | 0.00 | 0.00 | 0.00 | 17 | 1012.3 |
| 20260509042327 | 86 | 213 | 1.0 | 3.0 | 0.00 | 0.00 | 0.00 | 16 | 1012.3 |
| 20260509041854 | 86 | 213 | 1.0 | 4.0 | 0.00 | 0.00 | 0.00 | 15 | 1012.2 |
| 20260509041324 | 86 | 213 | 1.0 | 4.0 | 0.00 | 0.00 | 0.00 | 16 | 1012.1 |
| 20260509040815 | 86 | 213 | 2.0 | 4.0 | 0.00 | 0.00 | 0.00 | 15 | 1012.1 |
| 20260509040326 | 86 | 213 | 2.0 | 4.0 | 0.00 | 0.00 | 0.00 | 16 | 1012.0 |
| 20260509035813 | 85 | 215 | 1.0 | 3.0 | 0.00 | 0.00 | 0.00 | 16 | 1011.8 |
| 20260509035325 | 85 | 215 | 1.0 | 3.0 | 0.00 | 0.00 | 0.00 | 17 | 1011.8 |
| 20260509034831 | 85 | 215 | 1.0 | 3.0 | 0.00 | 0.00 | 0.00 | 17 | 1011.7 |
| 20260509034321 | 86 | 215 | 0.0 | 0.0 | 0.00 | 0.00 | 0.00 | 16 | 1011.7 |
| 20260509033827 | 86 | 215 | 0.0 | 0.0 | 0.00 | 0.00 | 0.00 | 18 | 1011.6 |
| 20260509033317 | 87 | 215 | 0.0 | 0.0 | 0.00 | 0.00 | 0.00 | 18 | 1011.5 |
| 20260509032824 | 87 | 215 | 0.0 | 0.0 | 0.00 | 0.00 | 0.00 | 17 | 1011.5 |
| 20260509032319 | 88 | 215 | 0.0 | 0.0 | 0.00 | 0.00 | 0.00 | 17 | 1011.4 |
| 20260509031846 | 88 | 215 | 0.0 | 0.0 | 0.00 | 0.00 | 0.00 | 17 | 1011.4 |
| 20260509031317 | 89 | 215 | 0.0 | 0.0 | 0.00 | 0.00 | 0.00 | 16 | 1011.4 |
| 20260509030823 | 89 | 215 | 0.0 | 0.0 | 0.00 | 0.00 | 0.00 | 15 | 1011.3 |
| 20260509030314 | 90 | 215 | 0.0 | 0.0 | 0.00 | 0.00 | 0.00 | 15 | 1011.3 |
| 20260509025821 | 90 | 215 | 0.0 | 0.0 | 0.00 | 0.00 | 0.00 | 15 | 1011.2 |
| 20260509025332 | 91 | 215 | 0.0 | 0.0 | 0.00 | 0.00 | 0.00 | 14 | 1011.1 |
| 20260509024818 | 91 | 215 | 0.0 | 0.0 | 0.00 | 0.00 | 0.00 | 13 | 1011.0 |
| 20260509024348 | 92 | 215 | 0.0 | 0.0 | 0.00 | 0.00 | 0.00 | 12 | 1011.0 |
| 20260509023835 | 92 | 215 | 0.0 | 2.0 | 0.00 | 0.00 | 0.00 | 12 | 1010.9 |
| 20260509023326 | 93 | 215 | 0.0 | 2.0 | 0.00 | 0.00 | 0.00 | 11 | 1010.9 |
| 20260509022831 | 93 | 215 | 0.0 | 3.0 | 0.00 | 0.00 | 0.00 | 11 | 1010.9 |
| 20260509022327 | 94 | 215 | 0.0 | 3.0 | 0.00 | 0.00 | 0.00 | 10 | 1010.9 |
| 20260509021814 | 94 | 215 | 1.0 | 3.0 | 0.00 | 0.00 | 0.00 | 10 | 1010.8 |
| 20260509021326 | 95 | 215 | 1.0 | 2.0 | 0.00 | 0.00 | 0.00 | 9 | 1010.7 |
| 20260509020833 | 95 | 215 | 1.0 | 4.0 | 0.00 | 0.00 | 0.00 | 9 | 1010.7 |
| 20260509020323 | 95 | 215 | 2.0 | 4.0 | 0.00 | 0.00 | 0.00 | 9 | 1010.7 |
| 20260509015831 | 96 | 215 | 0.0 | 10.0 | 0.00 | 0.00 | 0.00 | 9 | 1010.7 |
| 20260509015321 | 96 | 248 | 3.0 | 8.0 | 0.00 | 0.00 | 0.00 | 8 | 1010.7 |
| 20260509014827 | 96 | 230 | 1.0 | 7.0 | 0.00 | 0.00 | 0.00 | 9 | 1010.7 |
| 20260509014317 | 97 | 221 | 3.0 | 6.0 | 0.00 | 0.00 | 0.00 | 9 | 1010.7 |
| 20260509013824 | 97 | 242 | 2.0 | 8.0 | 0.00 | 0.00 | 0.00 | 9 | 1010.7 |
| 20260509013319 | 97 | 238 | 3.0 | 8.0 | 0.00 | 0.00 | 0.00 | 8 | 1010.6 |
| 20260509012826 | 98 | 300 | 3.0 | 8.0 | 0.00 | 0.00 | 0.00 | 8 | 1010.7 |
| 20260509012317 | 99 | 212 | 4.0 | 7.0 | 0.00 | 0.00 | 0.00 | 8 | 1010.8 |
| 20260509011824 | 99 | 252 | 4.0 | 9.0 | 0.00 | 0.00 | 0.00 | 8 | 1010.8 |
| 20260509011315 | 99 | 275 | 3.0 | 13.0 | 0.00 | 0.00 | 0.00 | 8 | 1010.8 |
| 20260509010843 | 100 | 260 | 5.0 | 12.0 | 0.00 | 0.00 | 0.00 | 8 | 1010.8 |
| 20260509010333 | 100 | 240 | 3.0 | 8.0 | 0.00 | 0.00 | 0.00 | 8 | 1010.8 |
| 20260509005839 | 100 | 246 | 3.0 | 11.0 | 0.00 | 0.00 | 0.00 | 8 | 1010.8 |
| 20260509005329 | 100 | 238 | 4.0 | 11.0 | 0.00 | 0.00 | 0.00 | 8 | 1010.8 |
| 20260509004815 | 100 | 256 | 3.0 | 7.0 | 0.00 | 0.00 | 0.00 | 8 | 1010.8 |
| 20260509004325 | 100 | 269 | 2.0 | 10.0 | 0.00 | 0.00 | 0.00 | 8 | 1010.9 |
| 20260509003816 | 100 | 271 | 5.0 | 10.0 | 0.00 | 0.00 | 0.00 | 7 | 1011.0 |
| 20260509003327 | 100 | 256 | 5.0 | 10.0 | 0.00 | 0.00 | 0.00 | 8 | 1011.0 |
| 20260509002835 | 100 | 244 | 4.0 | 14.0 | 0.00 | 0.00 | 0.00 | 8 | 1011.0 |
| 20260509002325 | 100 | 255 | 7.0 | 14.0 | 0.00 | 0.00 | 0.00 | 7 | 1011.1 |
| 20260509001832 | 101 | 249 | 6.0 | 12.0 | 0.00 | 0.00 | 0.00 | 7 | 1011.1 |
| 20260509001323 | 101 | 292 | 6.0 | 13.0 | 0.00 | 0.00 | 0.00 | 7 | 1011.2 |
| 20260509000830 | 101 | 242 | 4.0 | 12.0 | 0.00 | 0.00 | 0.00 | 7 | 1011.2 |
| 20260509000321 | 101 | 305 | 6.0 | 14.0 | 0.00 | 0.00 | 0.00 | 7 | 1011.2 |
| 20260508235848 | 101 | 292 | 6.0 | 14.0 | 0.00 | 0.00 | 0.00 | 7 | 1011.2 |
| 20260508235316 | 101 | 246 | 4.0 | 13.0 | 0.00 | 0.00 | 0.00 | 7 | 1011.3 |
| 20260508234823 | 101 | 249 | 9.0 | 12.0 | 0.00 | 0.00 | 0.00 | 7 | 1011.3 |
| 20260508234318 | 101 | 313 | 7.0 | 14.0 | 0.00 | 0.00 | 0.00 | 7 | 1011.3 |
| 20260508233825 | 101 | 248 | 4.0 | 14.0 | 0.00 | 0.00 | 0.00 | 7 | 1011.4 |
| 20260508233336 | 101 | 260 | 5.0 | 13.0 | 0.00 | 0.00 | 0.00 | 6 | 1011.4 |
| 20260508232822 | 101 | 260 | 4.0 | 15.0 | 0.00 | 0.00 | 0.00 | 7 | 1011.4 |
| 20260508232332 | 101 | 225 | 4.0 | 16.0 | 0.00 | 0.00 | 0.00 | 7 | 1011.6 |
| 20260508231817 | 101 | 241 | 9.0 | 16.0 | 0.00 | 0.00 | 0.00 | 5 | 1011.6 |
| 20260508231328 | 101 | 272 | 8.0 | 13.0 | 0.00 | 0.00 | 0.00 | 6 | 1011.7 |
| 20260508230815 | 101 | 306 | 7.0 | 13.0 | 0.00 | 0.00 | 0.00 | 7 | 1011.6 |
| 20260508230327 | 101 | 241 | 7.0 | 16.0 | 0.00 | 0.00 | 0.00 | 7 | 1011.6 |
| 20260508225814 | 101 | 286 | 9.0 | 16.0 | 0.00 | 0.00 | 0.00 | 7 | 1011.7 |
| 20260508225329 | 101 | 319 | 9.0 | 12.0 | 0.00 | 0.00 | 0.00 | 7 | 1011.7 |
| 20260508224816 | 101 | 299 | 6.0 | 12.0 | 0.00 | 0.00 | 0.00 | 8 | 1011.8 |
| 20260508224326 | 101 | 329 | 6.0 | 14.0 | 0.00 | 0.00 | 0.00 | 7 | 1011.8 |
| 20260508223833 | 101 | 288 | 6.0 | 12.0 | 0.00 | 0.00 | 0.00 | 8 | 1011.9 |
| 20260508223324 | 101 | 328 | 5.0 | 16.0 | 0.00 | 0.00 | 0.00 | 8 | 1011.9 |
| 20260508222832 | 101 | 263 | 5.0 | 16.0 | 0.00 | 0.00 | 0.00 | 8 | 1011.9 |
| 20260508222323 | 101 | 322 | 4.0 | 14.0 | 0.00 | 0.00 | 0.00 | 8 | 1012.1 |
| 20260508221850 | 101 | 254 | 5.0 | 14.0 | 0.00 | 0.00 | 0.00 | 8 | 1012.1 |
| 20260508221320 | 101 | 214 | 5.0 | 12.0 | 0.00 | 0.00 | 0.00 | 8 | 1012.3 |
| 20260508220827 | 101 | 252 | 8.0 | 12.0 | 0.00 | 0.00 | 0.00 | 8 | 1012.4 |
| 20260508220322 | 101 | 310 | 5.0 | 11.0 | 0.00 | 0.00 | 0.00 | 9 | 1012.5 |
| 20260508215829 | 101 | 254 | 3.0 | 10.0 | 0.00 | 0.00 | 0.00 | 9 | 1012.6 |
| 20260508215320 | 101 | 229 | 2.0 | 9.0 | 0.00 | 0.00 | 0.00 | 8 | 1012.6 |
| 20260508214847 | 100 | 208 | 3.0 | 11.0 | 0.00 | 0.00 | 0.00 | 10 | 1012.8 |
| 20260508214317 | 100 | 299 | 3.0 | 9.0 | 0.00 | 0.00 | 0.00 | 9 | 1012.9 |
| 20260508213845 | 100 | 242 | 3.0 | 13.0 | 0.00 | 0.00 | 0.00 | 9 | 1013.1 |
| 20260508213315 | 100 | 261 | 6.0 | 13.0 | 0.00 | 0.00 | 0.00 | 9 | 1013.1 |
| 20260508212842 | 100 | 261 | 6.0 | 13.0 | 0.00 | 0.00 | 0.00 | 9 | 1013.2 |
| 20260508212332 | 100 | 228 | 3.0 | 8.0 | 0.00 | 0.00 | 0.00 | 10 | 1013.3 |
| 20260508211819 | 100 | 198 | 3.0 | 11.0 | 0.00 | 0.00 | 0.00 | 9 | 1013.4 |
| 20260508210824 | 100 | 271 | 5.0 | 9.0 | 0.00 | 0.00 | 0.00 | 9 | 1013.5 |
| 20260508210333 | 99 | 221 | 1.0 | 7.0 | 0.00 | 0.00 | 0.00 | 9 | 1013.6 |
| 20260508205824 | 99 | 279 | 2.0 | 4.0 | 0.00 | 0.00 | 0.00 | 10 | 1013.7 |
| 20260508205315 | 98 | 279 | 2.0 | 7.0 | 0.00 | 0.00 | 0.00 | 10 | 1013.8 |
| 20260508204822 | 98 | 209 | 4.0 | 9.0 | 0.00 | 0.00 | 0.00 | 10 | 1013.9 |
| 20260508204333 | 98 | 204 | 3.0 | 9.0 | 0.00 | 0.00 | 0.00 | 11 | 1013.9 |
| 20260508203820 | 98 | 309 | 2.0 | 6.0 | 0.00 | 0.00 | 0.00 | 9 | 1014.0 |
| 20260508203331 | 97 | 312 | 2.0 | 8.0 | 0.00 | 0.00 | 0.00 | 9 | 1014.1 |
| 20260508202817 | 97 | 252 | 4.0 | 12.0 | 0.00 | 0.00 | 0.00 | 11 | 1014.1 |
| 20260508202328 | 97 | 265 | 7.0 | 12.0 | 0.00 | 0.00 | 0.00 | 10 | 1014.2 |
| 20260508201815 | 96 | 200 | 2.0 | 7.0 | 0.00 | 0.00 | 0.00 | 11 | 1014.2 |
| 20260508201329 | 96 | 227 | 2.0 | 7.0 | 0.00 | 0.00 | 0.00 | 11 | 1014.4 |
| 20260508200816 | 96 | 182 | 4.0 | 7.0 | 0.00 | 0.00 | 0.00 | 11 | 1014.4 |
| 20260508200347 | 96 | 273 | 3.0 | 9.0 | 0.00 | 0.00 | 0.00 | 10 | 1014.5 |
| 20260508195833 | 95 | 199 | 3.0 | 8.0 | 0.00 | 0.00 | 0.00 | 11 | 1014.6 |
| 20260508195324 | 95 | 213 | 4.0 | 8.0 | 0.00 | 0.00 | 0.00 | 12 | 1014.7 |
| 20260508194830 | 95 | 238 | 0.0 | 5.0 | 0.00 | 0.00 | 0.00 | 10 | 1014.7 |
| 20260508194320 | 95 | 259 | 2.0 | 6.0 | 0.00 | 0.00 | 0.00 | 11 | 1014.8 |
| 20260508193826 | 94 | 251 | 3.0 | 9.0 | 0.00 | 0.00 | 0.00 | 11 | 1015.0 |
| 20260508193317 | 94 | 200 | 2.0 | 5.0 | 0.00 | 0.00 | 0.00 | 12 | 1015.0 |
| 20260508192845 | 93 | 190 | 1.0 | 6.0 | 0.00 | 0.00 | 0.00 | 12 | 1015.1 |
| 20260508192335 | 93 | 190 | 2.0 | 9.0 | 0.00 | 0.00 | 0.00 | 13 | 1015.2 |
| 20260508191841 | 93 | 306 | 4.0 | 10.0 | 0.00 | 0.00 | 0.00 | 11 | 1015.3 |
| 20260508191315 | 93 | 259 | 6.0 | 10.0 | 0.00 | 0.00 | 0.00 | 12 | 1015.4 |
| 20260508190822 | 93 | 271 | 3.0 | 7.0 | 0.00 | 0.00 | 0.00 | 12 | 1015.4 |
| 20260508190314 | 92 | 201 | 2.0 | 4.0 | 0.00 | 0.00 | 0.00 | 12 | 1015.5 |
| 20260508185842 | 92 | 198 | 0.0 | 2.0 | 0.00 | 0.00 | 0.00 | 13 | 1015.5 |
| 20260508185332 | 92 | 198 | 1.0 | 7.0 | 0.00 | 0.00 | 0.00 | 11 | 1015.6 |
| 20260508184819 | 92 | 198 | 3.0 | 7.0 | 0.00 | 0.00 | 0.00 | 12 | 1015.6 |
| 20260508184329 | 92 | 204 | 2.0 | 6.0 | 0.00 | 0.00 | 0.00 | 13 | 1015.7 |
| 20260508183835 | 92 | 250 | 0.0 | 3.0 | 0.00 | 0.00 | 0.00 | 14 | 1015.8 |
| 20260508183325 | 91 | 252 | 1.0 | 5.0 | 0.00 | 0.00 | 0.00 | 13 | 1015.9 |
| 20260508182832 | 91 | 252 | 2.0 | 5.0 | 0.00 | 0.00 | 0.00 | 13 | 1015.9 |
| 20260508182322 | 90 | 248 | 2.0 | 4.0 | 0.00 | 0.00 | 0.00 | 13 | 1016.0 |
| 20260508181849 | 90 | 194 | 1.0 | 6.0 | 0.00 | 0.00 | 0.00 | 14 | 1016.0 |
| 20260508181318 | 89 | 199 | 1.0 | 6.0 | 0.00 | 0.00 | 0.00 | 15 | 1016.1 |
| 20260508180824 | 89 | 199 | 3.0 | 6.0 | 0.00 | 0.00 | 0.00 | 16 | 1016.2 |
| 20260508180335 | 88 | 194 | 1.0 | 3.0 | 0.00 | 0.00 | 0.00 | 16 | 1016.2 |
| 20260508175819 | 88 | 194 | 1.0 | 4.0 | 0.00 | 0.00 | 0.00 | 15 | 1016.2 |
| 20260508175329 | 88 | 194 | 1.0 | 5.0 | 0.00 | 0.00 | 0.00 | 16 | 1016.3 |
| 20260508174816 | 87 | 195 | 2.0 | 6.0 | 0.00 | 0.00 | 0.00 | 15 | 1016.4 |
| 20260508174327 | 87 | 191 | 2.0 | 6.0 | 0.00 | 0.00 | 0.00 | 16 | 1016.4 |
| 20260508173833 | 87 | 207 | 3.0 | 6.0 | 0.00 | 0.00 | 0.00 | 15 | 1016.5 |
| 20260508173324 | 86 | 192 | 3.0 | 6.0 | 0.00 | 0.00 | 0.00 | 16 | 1016.5 |
| 20260508172831 | 86 | 198 | 2.0 | 5.0 | 0.00 | 0.00 | 0.00 | 16 | 1016.5 |
| 20260508172321 | 87 | 198 | 2.0 | 5.0 | 0.00 | 0.00 | 0.00 | 16 | 1016.6 |
| 20260508171849 | 87 | 172 | 0.0 | 7.0 | 0.00 | 0.00 | 0.00 | 16 | 1016.6 |
| 20260508171323 | 86 | 172 | 2.0 | 7.0 | 0.00 | 0.00 | 0.00 | 16 | 1016.7 |
| 20260508170830 | 86 | 151 | 2.0 | 6.0 | 0.00 | 0.00 | 0.00 | 16 | 1016.8 |
| 20260508170322 | 86 | 149 | 1.0 | 4.0 | 0.00 | 0.00 | 0.00 | 17 | 1016.8 |
| 20260508165849 | 86 | 111 | 0.0 | 6.0 | 0.00 | 0.00 | 0.00 | 17 | 1016.8 |
| 20260508165319 | 85 | 111 | 0.0 | 6.0 | 0.00 | 0.00 | 0.00 | 18 | 1016.8 |
| 20260508164826 | 85 | 115 | 1.0 | 4.0 | 0.00 | 0.00 | 0.00 | 18 | 1016.8 |
| 20260508164317 | 84 | 187 | 1.0 | 9.0 | 0.00 | 0.00 | 0.00 | 19 | 1016.9 |
| 20260508163844 | 85 | 187 | 4.0 | 9.0 | 0.00 | 0.00 | 0.00 | 17 | 1016.9 |
| 20260508163314 | 85 | 144 | 2.0 | 5.0 | 0.00 | 0.00 | 0.00 | 17 | 1016.9 |
| 20260508162821 | 84 | 84 | 0.0 | 4.0 | 0.00 | 0.00 | 0.00 | 19 | 1016.9 |
| 20260508162316 | 84 | 83 | 0.0 | 3.0 | 0.00 | 0.00 | 0.00 | 18 | 1016.9 |
| 20260508161822 | 84 | 83 | 0.0 | 3.0 | 0.00 | 0.00 | 0.00 | 17 | 1016.9 |
| 20260508161332 | 83 | 83 | 1.0 | 3.0 | 0.00 | 0.00 | 0.00 | 19 | 1016.9 |
| 20260508160817 | 83 | 83 | 1.0 | 3.0 | 0.00 | 0.00 | 0.00 | 19 | 1016.9 |
| 20260508160327 | 83 | 83 | 0.0 | 6.0 | 0.00 | 0.00 | 0.00 | 19 | 1016.8 |
| 20260508155853 | 83 | 83 | 1.0 | 6.0 | 0.00 | 0.00 | 0.00 | 19 | 1016.8 |
| 20260508155321 | 82 | 82 | 3.0 | 6.0 | 0.00 | 0.00 | 0.00 | 18 | 1016.8 |
| 20260508154847 | 82 | 92 | 2.0 | 4.0 | 0.00 | 0.00 | 0.00 | 19 | 1016.7 |
| 20260508154317 | 81 | 92 | 1.0 | 4.0 | 0.00 | 0.00 | 0.00 | 21 | 1016.7 |
| 20260508153844 | 81 | 93 | 1.0 | 3.0 | 0.00 | 0.00 | 0.00 | 21 | 1016.9 |
| 20260508153333 | 81 | 93 | 1.0 | 3.0 | 0.00 | 0.00 | 0.00 | 20 | 1016.9 |
| 20260508152820 | 80 | 92 | 1.0 | 4.0 | 0.00 | 0.00 | 0.00 | 21 | 1017.0 |
| 20260508152315 | 80 | 92 | 1.0 | 6.0 | 0.00 | 0.00 | 0.00 | 22 | 1017.0 |
| 20260508151820 | 79 | 92 | 2.0 | 6.0 | 0.00 | 0.00 | 0.00 | 22 | 1017.0 |
| 20260508151330 | 79 | 87 | 1.0 | 4.0 | 0.00 | 0.00 | 0.00 | 23 | 1017.1 |
| 20260508150817 | 79 | 86 | 1.0 | 3.0 | 0.00 | 0.00 | 0.00 | 23 | 1017.0 |
| 20260508150329 | 78 | 86 | 0.0 | 3.0 | 0.00 | 0.00 | 0.00 | 23 | 1017.1 |
| 20260508145816 | 78 | 86 | 1.0 | 3.0 | 0.00 | 0.00 | 0.00 | 23 | 1017.1 |
| 20260508145327 | 77 | 86 | 0.0 | 3.0 | 0.00 | 0.00 | 0.00 | 24 | 1017.1 |
| 20260508144814 | 77 | 86 | 1.0 | 4.0 | 0.00 | 0.00 | 0.00 | 24 | 1017.1 |
| 20260508144324 | 77 | 86 | 1.0 | 4.0 | 0.00 | 0.00 | 0.00 | 25 | 1017.1 |
| 20260508143815 | 76 | 86 | 0.0 | 7.0 | 0.00 | 0.00 | 0.00 | 25 | 1017.1 |
| 20260508143325 | 76 | 86 | 3.0 | 7.0 | 0.00 | 0.00 | 0.00 | 25 | 1017.0 |
| 20260508142832 | 75 | 85 | 1.0 | 3.0 | 0.00 | 0.00 | 0.00 | 26 | 1016.9 |
| 20260508142322 | 75 | 85 | 1.0 | 3.0 | 0.00 | 0.00 | 0.00 | 27 | 1017.0 |
| 20260508141828 | 74 | 86 | 0.0 | 3.0 | 0.00 | 0.00 | 0.00 | 28 | 1017.0 |
| 20260508141318 | 73 | 86 | 0.0 | 4.0 | 0.00 | 0.00 | 0.00 | 28 | 1017.0 |
| 20260508140846 | 73 | 86 | 0.0 | 6.0 | 0.00 | 0.00 | 0.00 | 28 | 1016.9 |
| 20260508140316 | 72 | 91 | 1.0 | 6.0 | 0.00 | 0.00 | 0.00 | 29 | 1016.8 |
| 20260508135843 | 72 | 89 | 0.0 | 4.0 | 0.00 | 0.00 | 0.00 | 30 | 1016.7 |
| 20260508135354 | 71 | 89 | 1.0 | 4.0 | 0.00 | 0.00 | 0.00 | 30 | 1016.6 |
| 20260508134820 | 70 | 88 | 1.0 | 3.0 | 0.00 | 0.00 | 0.00 | 31 | 1016.6 |
| 20260508134331 | 69 | 88 | 0.0 | 3.0 | 0.00 | 0.00 | 0.00 | 32 | 1016.5 |
| 20260508133822 | 69 | 88 | 0.0 | 2.0 | 0.00 | 0.00 | 0.00 | 32 | 1016.5 |
| 20260508133333 | 68 | 88 | 0.0 | 4.0 | 0.00 | 0.00 | 0.00 | 32 | 1016.4 |
| 20260508132819 | 68 | 88 | 1.0 | 4.0 | 0.00 | 0.00 | 0.00 | 32 | 1016.3 |
| 20260508132330 | 67 | 87 | 1.0 | 3.0 | 0.00 | 0.00 | 0.00 | 32 | 1016.2 |
| 20260508131816 | 67 | 87 | 0.0 | 2.0 | 0.00 | 0.00 | 0.00 | 33 | 1016.2 |
| 20260508131326 | 66 | 87 | 0.0 | 2.0 | 0.00 | 0.00 | 0.00 | 34 | 1016.1 |
| 20260508130814 | 66 | 87 | 0.0 | 2.0 | 0.00 | 0.00 | 0.00 | 34 | 1016.1 |
| 20260508130325 | 66 | 87 | 0.0 | 0.0 | 0.00 | 0.00 | 0.00 | 34 | 1016.0 |
| 20260508125831 | 66 | 87 | 0.0 | 0.0 | 0.00 | 0.00 | 0.00 | 34 | 1015.9 |
| 20260508125322 | 66 | 87 | 0.0 | 3.0 | 0.00 | 0.00 | 0.00 | 33 | 1015.8 |
| 20260508124814 | 66 | 87 | 1.0 | 3.0 | 0.00 | 0.00 | 0.00 | 33 | 1015.7 |
| 20260508124325 | 66 | 87 | 0.0 | 2.0 | 0.00 | 0.00 | 0.00 | 33 | 1015.6 |
| 20260508123831 | 66 | 87 | 0.0 | 1.0 | 0.00 | 0.00 | 0.00 | 33 | 1015.6 |
| 20260508123322 | 66 | 87 | 0.0 | 1.0 | 0.00 | 0.00 | 0.00 | 33 | 1015.6 |
| 20260508122828 | 67 | 87 | 0.0 | 2.0 | 0.00 | 0.00 | 0.00 | 33 | 1015.5 |
| 20260508122319 | 67 | 87 | 0.0 | 2.0 | 0.00 | 0.00 | 0.00 | 32 | 1015.5 |
| 20260508121827 | 67 | 87 | 0.0 | 3.0 | 0.00 | 0.00 | 0.00 | 32 | 1015.4 |
| 20260508121319 | 67 | 87 | 1.0 | 4.0 | 0.00 | 0.00 | 0.00 | 32 | 1015.4 |
| 20260508120826 | 67 | 87 | 1.0 | 4.0 | 0.00 | 0.00 | 0.00 | 31 | 1015.5 |
| 20260508120320 | 67 | 87 | 2.0 | 3.0 | 0.00 | 0.00 | 0.00 | 31 | 1015.4 |
| 20260508115827 | 67 | 87 | 1.0 | 3.0 | 0.00 | 0.00 | 0.00 | 32 | 1015.4 |
| 20260508115318 | 67 | 87 | 0.0 | 3.0 | 0.00 | 0.00 | 0.00 | 32 | 1015.5 |
| 20260508114824 | 67 | 87 | 1.0 | 4.0 | 0.00 | 0.00 | 0.00 | 32 | 1015.4 |
| 20260508114315 | 67 | 87 | 1.0 | 4.0 | 0.00 | 0.00 | 0.00 | 31 | 1015.4 |
| 20260508113822 | 67 | 86 | 2.0 | 3.0 | 0.00 | 0.00 | 0.00 | 31 | 1015.4 |
| 20260508113353 | 67 | 86 | 1.0 | 2.0 | 0.00 | 0.00 | 0.00 | 33 | 1015.3 |
| 20260508112839 | 68 | 86 | 1.0 | 4.0 | 0.00 | 0.00 | 0.00 | 32 | 1015.3 |
| 20260508112328 | 68 | 86 | 2.0 | 4.0 | 0.00 | 0.00 | 0.00 | 32 | 1015.3 |
| 20260508111815 | 68 | 86 | 1.0 | 3.0 | 0.00 | 0.00 | 0.00 | 32 | 1015.3 |
| 20260508111326 | 68 | 86 | 2.0 | 3.0 | 0.00 | 0.00 | 0.00 | 32 | 1015.2 |
| 20260508110833 | 68 | 86 | 0.0 | 3.0 | 0.00 | 0.00 | 0.00 | 33 | 1015.2 |
| 20260508110328 | 68 | 86 | 1.0 | 3.0 | 0.00 | 0.00 | 0.00 | 33 | 1015.2 |
| 20260508105814 | 68 | 86 | 1.0 | 3.0 | 0.00 | 0.00 | 0.00 | 33 | 1015.2 |
| 20260508105325 | 68 | 86 | 0.0 | 2.0 | 0.00 | 0.00 | 0.00 | 33 | 1015.2 |
| 20260508104813 | 68 | 86 | 0.0 | 2.0 | 0.00 | 0.00 | 0.00 | 33 | 1015.1 |
| 20260508104324 | 68 | 86 | 0.0 | 2.0 | 0.00 | 0.00 | 0.00 | 32 | 1015.1 |
| 20260508103831 | 69 | 86 | 0.0 | 2.0 | 0.00 | 0.00 | 0.00 | 31 | 1015.1 |
| 20260508103322 | 69 | 86 | 1.0 | 3.0 | 0.00 | 0.00 | 0.00 | 30 | 1015.1 |
| 20260508102829 | 69 | 86 | 1.0 | 3.0 | 0.00 | 0.00 | 0.00 | 30 | 1015.1 |
| 20260508102341 | 69 | 86 | 1.0 | 3.0 | 0.00 | 0.00 | 0.00 | 30 | 1015.1 |
| 20260508101826 | 69 | 86 | 1.0 | 3.0 | 0.00 | 0.00 | 0.00 | 29 | 1015.1 |
| 20260508101321 | 69 | 86 | 1.0 | 3.0 | 0.00 | 0.00 | 0.00 | 29 | 1015.0 |
| 20260508100829 | 69 | 85 | 1.0 | 3.0 | 0.00 | 0.00 | 0.00 | 29 | 1015.0 |
| 20260508100341 | 69 | 85 | 1.0 | 2.0 | 0.00 | 0.00 | 0.00 | 30 | 1014.8 |
| 20260508095826 | 69 | 85 | 1.0 | 2.0 | 0.00 | 0.00 | 0.00 | 29 | 1014.8 |
| 20260508095317 | 69 | 85 | 0.0 | 3.0 | 0.00 | 0.00 | 0.00 | 29 | 1014.8 |
| 20260508094824 | 69 | 85 | 2.0 | 3.0 | 0.00 | 0.00 | 0.00 | 28 | 1014.7 |
| 20260508094315 | 69 | 85 | 1.0 | 3.0 | 0.00 | 0.00 | 0.00 | 29 | 1014.8 |
| 20260508093821 | 69 | 85 | 0.0 | 4.0 | 0.00 | 0.00 | 0.00 | 28 | 1014.8 |
| 20260508093353 | 69 | 80 | 2.0 | 4.0 | 0.00 | 0.00 | 0.00 | 28 | 1014.8 |
| 20260508092818 | 69 | 80 | 2.0 | 4.0 | 0.00 | 0.00 | 0.00 | 28 | 1014.8 |
| 20260508092314 | 70 | 80 | 2.0 | 4.0 | 0.00 | 0.00 | 0.00 | 28 | 1014.8 |
| 20260508091821 | 70 | 80 | 2.0 | 5.0 | 0.00 | 0.00 | 0.00 | 28 | 1014.8 |
| 20260508091332 | 70 | 84 | 2.0 | 6.0 | 0.00 | 0.00 | 0.00 | 28 | 1014.8 |
| 20260508090820 | 70 | 84 | 2.0 | 4.0 | 0.00 | 0.00 | 0.00 | 27 | 1014.9 |
| 20260508090332 | 70 | 83 | 2.0 | 5.0 | 0.00 | 0.00 | 0.00 | 27 | 1014.9 |
| 20260508085820 | 70 | 82 | 2.0 | 5.0 | 0.00 | 0.00 | 0.00 | 26 | 1015.0 |
| 20260508085330 | 70 | 82 | 1.0 | 5.0 | 0.00 | 0.00 | 0.00 | 26 | 1015.0 |
| 20260508084817 | 70 | 89 | 2.0 | 6.0 | 0.00 | 0.00 | 0.00 | 25 | 1015.0 |
| 20260508084328 | 70 | 94 | 3.0 | 6.0 | 0.00 | 0.00 | 0.00 | 24 | 1015.0 |
| 20260508083820 | 70 | 84 | 3.0 | 5.0 | 0.00 | 0.00 | 0.00 | 23 | 1015.0 |
| 20260508083329 | 71 | 82 | 1.0 | 5.0 | 0.00 | 0.00 | 0.00 | 21 | 1015.0 |
| 20260508082817 | 71 | 83 | 2.0 | 6.0 | 0.00 | 0.00 | 0.00 | 19 | 1015.0 |
| 20260508082327 | 70 | 86 | 3.0 | 6.0 | 0.00 | 0.00 | 0.00 | 18 | 1015.1 |
| 20260508081815 | 70 | 103 | 3.0 | 6.0 | 0.00 | 0.00 | 0.00 | 18 | 1015.0 |
| 20260508081326 | 70 | 107 | 3.0 | 6.0 | 0.00 | 0.00 | 0.00 | 17 | 1015.1 |
| 20260508080814 | 70 | 128 | 3.0 | 4.0 | 0.00 | 0.00 | 0.00 | 17 | 1015.0 |
| 20260508080324 | 70 | 130 | 1.0 | 4.0 | 0.00 | 0.00 | 0.00 | 19 | 1015.0 |
| 20260508075830 | 70 | 170 | 2.0 | 4.0 | 0.00 | 0.00 | 0.00 | 19 | 1015.0 |
| 20260508075324 | 71 | 196 | 1.0 | 2.0 | 0.00 | 0.00 | 0.00 | 19 | 1015.0 |
| 20260508074832 | 71 | 196 | 0.0 | 3.0 | 0.00 | 0.00 | 0.00 | 19 | 1015.0 |
| 20260508074323 | 71 | 196 | 1.0 | 3.0 | 0.00 | 0.00 | 0.00 | 19 | 1015.0 |
| 20260508073831 | 71 | 204 | 1.0 | 3.0 | 0.00 | 0.00 | 0.00 | 19 | 1015.0 |
| 20260508073341 | 71 | 209 | 1.0 | 2.0 | 0.00 | 0.00 | 0.00 | 19 | 1015.0 |
| 20260508072827 | 70 | 209 | 0.0 | 3.0 | 0.00 | 0.00 | 0.00 | 20 | 1015.0 |